Regional Weather Roundup
Issued by NWS

Home | Current Version | Previous Version | Graphics & Text | Print | Product List | Glossary On
Versions: 1 2 3 4 5 6 7 8 9 10 11 12 13 14 15 16 17 18 19 20 21 22 23 24 25 26 27 28 29 30 31 32 33 34 35 36 37 38 39 40 41 42 43 44 45 46 47 48 49 50
000
ASUS45 KCYS 171910
RWRWY

WYOMING REGIONAL WEATHER ROUNDUP
NATIONAL WEATHER SERVICE CHEYENNE WY
100 PM MDT WED SEP 17 2014

NOTE:  "FAIR" INDICATES FEW OR NO CLOUDS BELOW 12,000 FEET
WITH NO SIGNIFICANT WEATHER AND/OR OBSTRUCTIONS TO VISIBILITY.

WYZ001-172000-
YELLOWSTONE NATIONAL PARK

CITY           SKY/WX    TMP DP  RH WIND       PRES   REMARKS
LK YELLOWSTONE   N/A     62  44  51 VRB5      30.23F
W YELLOWSTONE  NOT AVBL

$$
WYZ002>013-054>058-071-098>099-172000-
NORTHERN WYOMING

CITY           SKY/WX    TMP DP  RH WIND       PRES   REMARKS
JACKSON        MOSUNNY   70  45  40 S7        30.14F
CODY           MOSUNNY   79  45  29 E8        30.01S
GREYBULL       SUNNY     79  44  28 SE8       29.95F
WORLAND        MOSUNNY   76  48  37 W6        29.98F
SHERIDAN       SUNNY     83  46  27 N7        29.96F
BUFFALO        LGT RAIN  78  42  27 E5        30.03S
GILLETTE       MOSUNNY   81  42  25 S6        29.98F
HULETT         FAIR      79  39  24 MISG      29.99
NEWCASTLE      FAIR      79  34  19 SE7       30.00

$$
WYZ014>020-022>026-101>103-172000-
CENTRAL WYOMING

CITY           SKY/WX    TMP DP  RH WIND       PRES   REMARKS
BIG PINEY      SUNNY     70  43  37 VRB6      30.22F
PINEDALE       PTCLDY    72  37  28 W5        30.22S
DUBOIS         FAIR      73  34  23 NW7G16    30.16F
LANDER         CLOUDY    76  49  38 SE9       30.06F
RIVERTON       CLOUDY    75  42  30 SW10      30.08F
CASPER         MOSUNNY   83  39  21 SW20G26   30.06F
DOUGLAS        MOSUNNY   83  40  21 MISG      30.04S

$$
WYZ021-027>030-104>119-172000-
SOUTHERN WYOMING

CITY           SKY/WX    TMP DP  RH WIND       PRES   REMARKS
EVANSTON       SUNNY     75  41  29 E17       30.20F
KEMMERER       CLEAR     73  37  27 E8G20     30.23F
FORT BRIDGER   FAIR      73  40  30 E10G20    30.25F
ROCK SPRINGS   MOSUNNY   76  37  24 NE8       30.19F
DIXON          FAIR      80  39  22 SW5       30.19F
RAWLINS        PTSUNNY   73  36  25 NW12      30.20S
SARATOGA       CLOUDY    79  32  18 W8        30.19F
LARAMIE        MOSUNNY   78  32  18 N8        30.19F
CHEYENNE       MOSUNNY   81  36  19 N3        30.11F
TORRINGTON     SUNNY     82  42  24 CALM      29.98F
PINE BLUFFS    FAIR      82  36  18 CALM      30.05F

$$



USA.gov is the U.S. government's official web portal to all federal, state and local government web resources and services.